Japanese version Home page |
Updated on March 7, 2023 |
|
Orbital ElementsEpoch 2023 Feb. 25.0 TT = JDT 2460000.5 T 2022 July 17.02582 TT Rudenko q 2.4320801 (2000.0) P Q n 0.10458290 Peri. 27.89237 -0.71380754 -0.63633597 a 4.4616511 Node 109.46296 +0.57087537 -0.77060612 e 0.4548924 Incl. 18.07283 +0.40568474 -0.03525239 P 9.42 >From 191 observations 2003 Dec. 1-2023 Feb. 14, mean residual 0".7.
|
Magnitudes Graphm1 = 14.0 + 5 log d + 10.0 log r
|
The orbital elements are published on M.P.E.C. 2023-D41.
|